| time (UTC) | temp F | wind direction | speed MPH | gust MPH | rain 1hr in | rain 24hr in | rain mn in | humidity % | barometer mb |
| 20260903163335 | 77 | 291 | 5.0 | 6.0 | 0.00 | 0.27 | 0.27 | 81 | 1015.4 |
| 20260903162831 | 78 | 288 | 3.0 | 3.0 | 0.00 | 0.27 | 0.27 | 81 | 1015.2 |
| 20260903162327 | 79 | 294 | 3.0 | 5.0 | 0.00 | 0.27 | 0.27 | 79 | 1015.5 |
| 20260903161823 | 78 | 226 | 3.0 | 5.0 | 0.00 | 0.27 | 0.27 | 82 | 1015.6 |
| 20260903161318 | 78 | 231 | 1.0 | 2.0 | 0.00 | 0.27 | 0.27 | 81 | 1015.6 |
| 20260903160814 | 79 | 206 | 2.0 | 2.0 | 0.00 | 0.27 | 0.27 | 82 | 1015.6 |
| 20260903160312 | 79 | 194 | 1.0 | 1.0 | 0.00 | 0.27 | 0.27 | 82 | 1015.8 |
| 20260903155811 | 78 | 194 | 2.0 | 2.0 | 0.00 | 0.27 | 0.27 | 82 | 1015.7 |
| 20260903155307 | 77 | 187 | 2.0 | 2.0 | 0.00 | 0.27 | 0.27 | 84 | 1015.9 |
| 20260903154801 | 77 | 210 | 3.0 | 3.0 | 0.00 | 0.27 | 0.27 | 85 | 1015.9 |
| 20260903154258 | 76 | 213 | 1.0 | 1.0 | 0.00 | 0.27 | 0.27 | 85 | 1016.2 |
| 20260903153753 | 76 | 189 | 0.0 | 1.0 | 0.00 | 0.27 | 0.27 | 88 | 1016.0 |
| 20260903153249 | 75 | 217 | 2.0 | 2.0 | 0.00 | 0.27 | 0.27 | 89 | 1016.2 |
| 20260903152745 | 74 | 186 | 0.0 | 1.0 | 0.00 | 0.27 | 0.27 | 90 | 1016.1 |
| 20260903152241 | 74 | 168 | 0.0 | 0.0 | 0.00 | 0.27 | 0.27 | 90 | 1016.1 |
| 20260903151740 | 74 | 263 | 2.0 | 2.0 | 0.00 | 0.27 | 0.27 | 90 | 1016.2 |
| 20260903151236 | 74 | 192 | 0.0 | 1.0 | 0.00 | 0.27 | 0.27 | 90 | 1016.1 |
| 20260903150731 | 73 | 199 | 1.0 | 2.0 | 0.00 | 0.27 | 0.27 | 90 | 1016.0 |
| 20260903150225 | 73 | 209 | 1.0 | 2.0 | 0.00 | 0.27 | 0.27 | 90 | 1016.4 |
| 20260903145725 | 74 | 254 | 2.0 | 3.0 | 0.00 | 0.27 | 0.27 | 90 | 1016.1 |
| 20260903145221 | 75 | 169 | 0.0 | 0.0 | 0.00 | 0.27 | 0.27 | 91 | 1015.8 |
| 20260903144719 | 74 | 181 | 0.0 | 0.0 | 0.00 | 0.27 | 0.27 | 90 | 1015.9 |
| 20260903144216 | 74 | 194 | 1.0 | 1.0 | 0.00 | 0.27 | 0.27 | 91 | 1015.9 |
| 20260903143711 | 73 | 227 | 2.0 | 2.0 | 0.00 | 0.27 | 0.27 | 91 | 1016.1 |
| 20260903143207 | 74 | 207 | 1.0 | 1.0 | 0.00 | 0.27 | 0.27 | 92 | 1016.0 |
| 20260903142702 | 73 | 198 | 3.0 | 3.0 | 0.00 | 0.27 | 0.27 | 92 | 1016.0 |
| 20260903142159 | 73 | 197 | 1.0 | 1.0 | 0.00 | 0.27 | 0.27 | 95 | 1016.0 |
| 20260903141654 | 72 | 216 | 3.0 | 3.0 | 0.00 | 0.27 | 0.27 | 95 | 1016.1 |
| 20260903141149 | 71 | 281 | 3.0 | 3.0 | 0.00 | 0.27 | 0.27 | 95 | 1016.1 |
| 20260903140645 | 71 | 192 | 0.0 | 1.0 | 0.00 | 0.27 | 0.27 | 95 | 1015.9 |
| 20260903140140 | 71 | 186 | 2.0 | 2.0 | 0.00 | 0.27 | 0.27 | 95 | 1015.9 |
| 20260903135636 | 71 | 213 | 3.0 | 3.0 | 0.00 | 0.27 | 0.27 | 95 | 1015.9 |
| 20260903135130 | 70 | 179 | 1.0 | 1.0 | 0.00 | 0.27 | 0.27 | 95 | 1015.9 |
| 20260903134629 | 70 | 187 | 0.0 | 0.0 | 0.00 | 0.27 | 0.27 | 95 | 1015.6 |
| 20260903134125 | 70 | 187 | 1.0 | 1.0 | 0.00 | 0.27 | 0.27 | 95 | 1015.5 |
| 20260903133623 | 69 | 167 | 0.0 | 0.0 | 0.00 | 0.27 | 0.27 | 95 | 1015.8 |
| 20260903133119 | 69 | 195 | 0.0 | 1.0 | 0.00 | 0.27 | 0.27 | 95 | 1015.8 |
| 20260903132614 | 70 | 172 | 1.0 | 1.0 | 0.00 | 0.27 | 0.27 | 95 | 1016.0 |
| 20260903132113 | 69 | 176 | 0.0 | 0.0 | 0.00 | 0.27 | 0.27 | 95 | 1015.9 |
| 20260903131608 | 69 | 177 | 0.0 | 0.0 | 0.00 | 0.27 | 0.27 | 95 | 1015.9 |
| 20260903131107 | 68 | 177 | 0.0 | 1.0 | 0.00 | 0.27 | 0.27 | 95 | 1016.1 |
| 20260903130603 | 68 | 356 | 3.0 | 3.0 | 0.00 | 0.27 | 0.27 | 95 | 1016.0 |
| 20260903130056 | 69 | 153 | 0.0 | 0.0 | 0.00 | 0.27 | 0.27 | 95 | 1016.0 |
| 20260903125554 | 68 | 156 | 0.0 | 0.0 | 0.00 | 0.27 | 0.27 | 95 | 1016.2 |
| 20260903113437 | 65 | 167 | 0.0 | 0.0 | 0.00 | 0.27 | 0.27 | 95 | 1015.8 |
| 20260903112932 | 65 | 167 | 0.0 | 0.0 | 0.00 | 0.27 | 0.27 | 95 | 1015.8 |
| 20260903112428 | 65 | 177 | 0.0 | 0.0 | 0.00 | 0.27 | 0.27 | 95 | 1015.8 |
| 20260903111927 | 65 | 130 | 0.0 | 0.0 | 0.00 | 0.27 | 0.27 | 95 | 1015.7 |
| 20260903111426 | 65 | 158 | 0.0 | 0.0 | 0.00 | 0.27 | 0.27 | 95 | 1015.6 |
| 20260903110923 | 66 | 164 | 0.0 | 0.0 | 0.00 | 0.27 | 0.27 | 95 | 1015.6 |
| 20260903110419 | 66 | 200 | 1.0 | 2.0 | 0.00 | 0.27 | 0.27 | 95 | 1015.5 |
| 20260903105914 | 66 | 133 | 0.0 | 0.0 | 0.00 | 0.27 | 0.27 | 95 | 1015.6 |
| 20260903105409 | 66 | 151 | 0.0 | 0.0 | 0.00 | 0.27 | 0.27 | 95 | 1015.6 |
| 20260903104908 | 65 | 161 | 0.0 | 0.0 | 0.00 | 0.27 | 0.27 | 95 | 1015.5 |
| 20260903104402 | 65 | 126 | 0.0 | 0.0 | 0.00 | 0.27 | 0.27 | 95 | 1015.6 |
| 20260903103900 | 65 | 139 | 0.0 | 0.0 | 0.00 | 0.27 | 0.27 | 95 | 1015.8 |
| 20260903103355 | 65 | 163 | 0.0 | 0.0 | 0.00 | 0.27 | 0.27 | 95 | 1015.6 |
| 20260903102851 | 65 | 168 | 0.0 | 0.0 | 0.00 | 0.27 | 0.27 | 95 | 1015.5 |
| 20260903102350 | 65 | 135 | 0.0 | 0.0 | 0.00 | 0.27 | 0.27 | 95 | 1015.7 |
| 20260903101845 | 65 | 139 | 0.0 | 0.0 | 0.00 | 0.27 | 0.27 | 95 | 1015.7 |
| 20260903101340 | 65 | 125 | 0.0 | 0.0 | 0.00 | 0.27 | 0.27 | 95 | 1015.5 |
| 20260903100835 | 65 | 137 | 0.0 | 1.0 | 0.00 | 0.27 | 0.27 | 95 | 1015.7 |
| 20260903100329 | 65 | 141 | 0.0 | 0.0 | 0.00 | 0.27 | 0.27 | 95 | 1015.8 |
| 20260903095821 | 65 | 141 | 0.0 | 0.0 | 0.00 | 0.27 | 0.27 | 95 | 1015.8 |
| 20260903095315 | 65 | 138 | 0.0 | 0.0 | 0.00 | 0.27 | 0.27 | 95 | 1015.8 |
| 20260903094811 | 65 | 104 | 0.0 | 0.0 | 0.00 | 0.27 | 0.27 | 95 | 1015.6 |
| 20260903094305 | 65 | 99 | 0.0 | 0.0 | 0.00 | 0.27 | 0.27 | 95 | 1015.6 |
| 20260903093801 | 65 | 137 | 0.0 | 0.0 | 0.00 | 0.27 | 0.27 | 95 | 1015.8 |
| 20260903093255 | 65 | 117 | 1.0 | 1.0 | 0.00 | 0.27 | 0.27 | 95 | 1015.5 |
| 20260903041526 | 67 | 193 | 1.0 | 1.0 | 0.19 | 0.02 | 0.02 | 95 | 1017.6 |
| 20260903041021 | 67 | 193 | 1.0 | 1.0 | 0.19 | 0.02 | 0.02 | 95 | 1017.6 |
| 20260903040520 | 67 | 101 | 1.0 | 1.0 | 0.24 | 0.01 | 0.01 | 95 | 1017.3 |
| 20260903040017 | 67 | 255 | 2.0 | 2.0 | 0.54 | 1.37 | 1.37 | 95 | 1017.6 |
| 20260903035512 | 68 | 209 | 3.0 | 6.0 | 0.42 | 1.33 | 1.33 | 95 | 1018.1 |
| 20260903035008 | 67 | 313 | 4.0 | 5.0 | 0.19 | 1.28 | 1.28 | 95 | 1018.9 |
| 20260903034508 | 67 | 248 | 4.0 | 6.0 | 0.07 | 1.26 | 1.26 | 95 | 1017.9 |
| 20260903034002 | 67 | 61 | 0.0 | 2.0 | 0.05 | 1.25 | 1.25 | 95 | 1016.7 |
| 20260903033458 | 67 | 92 | 1.0 | 2.0 | 0.07 | 1.24 | 1.24 | 95 | 1016.1 |
| 20260903032953 | 67 | 110 | 2.0 | 2.0 | 0.07 | 1.24 | 1.24 | 95 | 1015.8 |
| 20260903032448 | 66 | 113 | 3.0 | 5.0 | 0.05 | 1.23 | 1.23 | 95 | 1016.0 |
| 20260903031943 | 66 | 156 | 0.0 | 0.0 | 0.05 | 1.23 | 1.23 | 95 | 1016.4 |
| 20260903031442 | 66 | 74 | 0.0 | 0.0 | 0.07 | 1.22 | 1.22 | 95 | 1016.8 |
| 20260903030932 | 66 | 148 | 0.0 | 0.0 | 0.12 | 1.22 | 1.22 | 95 | 1016.8 |
| 20260903030429 | 66 | 48 | 1.0 | 2.0 | 0.05 | 1.21 | 1.21 | 95 | 1017.0 |
| 20260903025924 | 66 | 335 | 4.0 | 5.0 | 0.12 | 1.20 | 1.20 | 95 | 1017.1 |
| 20260903025419 | 66 | 333 | 1.0 | 3.0 | 0.19 | 1.20 | 1.20 | 95 | 1017.3 |
| 20260903024915 | 65 | 155 | 0.0 | 0.0 | 0.07 | 1.18 | 1.18 | 95 | 1017.9 |
| 20260903024408 | 65 | 161 | 0.0 | 0.0 | 0.05 | 1.17 | 1.17 | 95 | 1018.0 |
| 20260903023903 | 65 | 96 | 0.0 | 2.0 | 0.12 | 1.17 | 1.17 | 95 | 1017.8 |
| 20260903023359 | 65 | 148 | 1.0 | 2.0 | 0.19 | 1.16 | 1.16 | 95 | 1018.1 |
| 20260903022854 | 65 | 171 | 0.0 | 0.0 | 0.24 | 1.15 | 1.15 | 95 | 1018.2 |
| 20260903022353 | 65 | 147 | 0.0 | 0.0 | 0.19 | 1.13 | 1.13 | 95 | 1017.6 |
| 20260903021852 | 65 | 132 | 1.0 | 1.0 | 0.19 | 1.11 | 1.11 | 95 | 1017.4 |
| 20260903021348 | 65 | 147 | 0.0 | 0.0 | 0.12 | 1.09 | 1.09 | 95 | 1017.4 |
| 20260903020847 | 65 | 173 | 0.0 | 0.0 | 0.17 | 1.08 | 1.08 | 95 | 1017.6 |
| 20260903020343 | 65 | 129 | 0.0 | 0.0 | 0.38 | 1.07 | 1.07 | 95 | 1018.1 |
| 20260903015837 | 65 | 113 | 5.0 | 6.0 | 0.90 | 1.05 | 1.05 | 95 | 1018.5 |
| 20260903015332 | 65 | 163 | 1.0 | 2.0 | 2.15 | 1.00 | 1.00 | 95 | 1019.2 |
| 20260903014828 | 66 | 183 | 1.0 | 2.0 | 2.83 | 0.90 | 0.90 | 95 | 1020.1 |
| 20260903014322 | 68 | 353 | 6.0 | 15.0 | 1.09 | 0.61 | 0.61 | 95 | 1021.3 |
| 20260903013817 | 69 | 300 | 4.0 | 5.0 | 0.00 | 0.43 | 0.43 | 95 | 1018.9 |
| 20260903013316 | 69 | 133 | 0.0 | 1.0 | 0.00 | 0.43 | 0.43 | 95 | 1017.9 |
| 20260903012815 | 69 | 122 | 3.0 | 3.0 | 0.00 | 0.43 | 0.43 | 95 | 1017.5 |
| 20260903012309 | 69 | 157 | 0.0 | 0.0 | 0.00 | 0.43 | 0.43 | 95 | 1017.7 |
| 20260903011803 | 69 | 115 | 2.0 | 2.0 | 0.00 | 0.43 | 0.43 | 95 | 1017.7 |
| 20260903011303 | 69 | 122 | 1.0 | 1.0 | 0.00 | 0.43 | 0.43 | 95 | 1017.6 |
| 20260903010758 | 70 | 133 | 3.0 | 3.0 | 0.00 | 0.43 | 0.43 | 95 | 1017.9 |
| 20260903010254 | 70 | 129 | 1.0 | 2.0 | 0.00 | 0.43 | 0.43 | 95 | 1018.0 |
| 20260903005752 | 70 | 139 | 4.0 | 5.0 | 0.00 | 0.43 | 0.43 | 95 | 1017.4 |
| 20260903005247 | 70 | 144 | 2.0 | 2.0 | 0.05 | 0.43 | 0.43 | 95 | 1016.8 |
| 20260903004743 | 70 | 142 | 4.0 | 6.0 | 0.00 | 0.42 | 0.42 | 95 | 1016.8 |
| 20260903004238 | 70 | 110 | 5.0 | 9.0 | 0.00 | 0.42 | 0.42 | 95 | 1016.9 |
| 20260903003734 | 70 | 114 | 4.0 | 5.0 | 0.00 | 0.42 | 0.42 | 95 | 1016.7 |
| 20260903003229 | 70 | 103 | 3.0 | 5.0 | 0.00 | 0.42 | 0.42 | 95 | 1017.1 |
| 20260903002723 | 70 | 148 | 4.0 | 5.0 | 0.00 | 0.42 | 0.42 | 95 | 1016.9 |
| 20260903002218 | 70 | 132 | 5.0 | 7.0 | 0.00 | 0.42 | 0.42 | 95 | 1016.8 |
| 20260903001713 | 70 | 120 | 2.0 | 2.0 | 0.00 | 0.42 | 0.42 | 95 | 1017.1 |
| 20260903001207 | 70 | 155 | 3.0 | 3.0 | 0.00 | 0.42 | 0.42 | 95 | 1017.0 |
| 20260903000703 | 70 | 114 | 3.0 | 3.0 | 0.00 | 0.42 | 0.42 | 95 | 1016.9 |
| 20260903000204 | 70 | 126 | 2.0 | 2.0 | 0.00 | 0.42 | 0.42 | 95 | 1017.0 |
| 20260902235700 | 70 | 166 | 2.0 | 2.0 | 0.00 | 0.42 | 0.42 | 95 | 1017.2 |
| 20260902235156 | 70 | 203 | 5.0 | 6.0 | 0.00 | 0.42 | 0.42 | 95 | 1017.0 |
| 20260902234650 | 70 | 120 | 5.0 | 7.0 | 0.00 | 0.42 | 0.42 | 95 | 1016.5 |
| 20260902234149 | 70 | 137 | 3.0 | 5.0 | 0.00 | 0.42 | 0.42 | 95 | 1016.5 |
| 20260902233644 | 70 | 125 | 6.0 | 7.0 | 0.00 | 0.42 | 0.42 | 95 | 1016.8 |
| 20260902233143 | 70 | 139 | 5.0 | 7.0 | 0.00 | 0.42 | 0.42 | 95 | 1016.9 |
| 20260902232642 | 70 | 167 | 5.0 | 7.0 | 0.00 | 0.42 | 0.42 | 95 | 1017.0 |
| 20260902232141 | 70 | 149 | 2.0 | 3.0 | 0.00 | 0.42 | 0.42 | 95 | 1017.1 |
| 20260902231636 | 70 | 131 | 2.0 | 3.0 | 0.00 | 0.42 | 0.42 | 95 | 1017.3 |
| 20260902231131 | 70 | 151 | 3.0 | 3.0 | 0.00 | 0.42 | 0.42 | 95 | 1017.1 |
| 20260902230626 | 70 | 130 | 1.0 | 2.0 | 0.00 | 0.42 | 0.42 | 95 | 1017.4 |
| 20260902230125 | 70 | 140 | 3.0 | 5.0 | 0.00 | 0.42 | 0.42 | 95 | 1017.0 |
| 20260902225620 | 70 | 162 | 3.0 | 5.0 | 0.00 | 0.42 | 0.42 | 95 | 1016.7 |
| 20260902225119 | 70 | 118 | 5.0 | 7.0 | 0.00 | 0.42 | 0.42 | 95 | 1016.7 |
| 20260902224618 | 70 | 114 | 3.0 | 3.0 | 0.00 | 0.42 | 0.42 | 95 | 1016.8 |
| 20260902224114 | 71 | 115 | 4.0 | 8.0 | 0.00 | 0.42 | 0.42 | 95 | 1016.9 |
| 20260902223611 | 71 | 109 | 11.0 | 13.0 | 0.00 | 0.42 | 0.42 | 95 | 1016.7 |
| 20260902223109 | 71 | 169 | 5.0 | 8.0 | 0.00 | 0.42 | 0.42 | 95 | 1016.9 |
| 20260902222608 | 71 | 128 | 6.0 | 9.0 | 0.00 | 0.42 | 0.42 | 95 | 1016.8 |
| 20260902222107 | 71 | 121 | 4.0 | 6.0 | 0.00 | 0.42 | 0.42 | 95 | 1016.7 |
| 20260902221601 | 71 | 121 | 5.0 | 8.0 | 0.00 | 0.42 | 0.42 | 95 | 1017.0 |
| 20260902221056 | 71 | 131 | 5.0 | 7.0 | 0.00 | 0.42 | 0.42 | 95 | 1017.0 |
| 20260902220552 | 71 | 64 | 6.0 | 8.0 | 0.00 | 0.42 | 0.42 | 95 | 1017.4 |
| 20260902220046 | 71 | 128 | 5.0 | 6.0 | 0.00 | 0.42 | 0.42 | 95 | 1017.2 |
| 20260902215543 | 71 | 108 | 3.0 | 6.0 | 0.00 | 0.42 | 0.42 | 95 | 1017.5 |
| 20260902215037 | 71 | 126 | 4.0 | 6.0 | 0.00 | 0.42 | 0.42 | 95 | 1017.6 |
| 20260902214532 | 71 | 115 | 4.0 | 6.0 | 0.00 | 0.42 | 0.42 | 95 | 1017.4 |
| 20260902214031 | 71 | 116 | 6.0 | 7.0 | 0.00 | 0.42 | 0.42 | 95 | 1017.5 |
| 20260902213527 | 71 | 136 | 4.0 | 5.0 | 0.00 | 0.42 | 0.42 | 95 | 1017.6 |
| 20260902213026 | 71 | 114 | 4.0 | 6.0 | 0.00 | 0.42 | 0.42 | 95 | 1017.7 |
| 20260902212522 | 71 | 115 | 4.0 | 6.0 | 0.00 | 0.42 | 0.42 | 95 | 1017.6 |
| 20260902212018 | 71 | 109 | 4.0 | 5.0 | 0.00 | 0.42 | 0.42 | 95 | 1017.4 |
| 20260902211514 | 71 | 129 | 3.0 | 3.0 | 0.00 | 0.42 | 0.42 | 95 | 1017.6 |
| 20260902211008 | 71 | 181 | 2.0 | 2.0 | 0.00 | 0.42 | 0.42 | 95 | 1017.7 |
| 20260902210503 | 71 | 100 | 4.0 | 5.0 | 0.00 | 0.42 | 0.42 | 95 | 1017.7 |
| 20260902210001 | 71 | 110 | 3.0 | 3.0 | 0.00 | 0.42 | 0.42 | 95 | 1017.6 |
| 20260902205456 | 71 | 167 | 1.0 | 1.0 | 0.00 | 0.42 | 0.42 | 95 | 1017.6 |
| 20260902204952 | 71 | 121 | 3.0 | 3.0 | 0.00 | 0.42 | 0.42 | 95 | 1017.5 |
| 20260902204451 | 71 | 115 | 2.0 | 3.0 | 0.00 | 0.42 | 0.42 | 95 | 1017.7 |
| 20260902203947 | 71 | 118 | 3.0 | 3.0 | 0.00 | 0.42 | 0.42 | 95 | 1017.5 |
| 20260902203443 | 71 | 119 | 6.0 | 7.0 | 0.00 | 0.42 | 0.42 | 95 | 1017.4 |
| 20260902202941 | 71 | 142 | 6.0 | 8.0 | 0.00 | 0.42 | 0.42 | 95 | 1017.5 |
| 20260902202437 | 71 | 144 | 3.0 | 3.0 | 0.00 | 0.42 | 0.42 | 95 | 1017.3 |
| 20260902201934 | 71 | 121 | 7.0 | 8.0 | 0.00 | 0.42 | 0.42 | 95 | 1017.4 |
| 20260902201429 | 71 | 122 | 7.0 | 8.0 | 0.00 | 0.42 | 0.42 | 95 | 1017.8 |
| 20260902200929 | 71 | 134 | 3.0 | 5.0 | 0.00 | 0.42 | 0.42 | 95 | 1017.7 |
| 20260902200424 | 71 | 113 | 2.0 | 3.0 | 0.00 | 0.42 | 0.42 | 95 | 1017.8 |
| 20260902195919 | 71 | 124 | 3.0 | 5.0 | 0.00 | 0.42 | 0.42 | 95 | 1017.8 |
| 20260902195414 | 71 | 169 | 7.0 | 8.0 | 0.00 | 0.42 | 0.42 | 95 | 1017.8 |
| 20260902194909 | 71 | 101 | 5.0 | 7.0 | 0.00 | 0.42 | 0.42 | 95 | 1017.7 |
| 20260902194408 | 71 | 131 | 3.0 | 3.0 | 0.00 | 0.42 | 0.42 | 95 | 1018.1 |
| 20260902193903 | 71 | 132 | 3.0 | 3.0 | 0.00 | 0.42 | 0.42 | 95 | 1018.3 |
| 20260902193359 | 71 | 101 | 3.0 | 5.0 | 0.00 | 0.42 | 0.42 | 95 | 1018.2 |
| 20260902192858 | 71 | 127 | 4.0 | 6.0 | 0.00 | 0.42 | 0.42 | 95 | 1018.4 |
| 20260902192357 | 71 | 124 | 3.0 | 3.0 | 0.00 | 0.42 | 0.42 | 95 | 1018.2 |
| 20260902191851 | 71 | 167 | 4.0 | 5.0 | 0.00 | 0.42 | 0.42 | 95 | 1018.2 |
| 20260902191346 | 70 | 114 | 4.0 | 7.0 | 0.00 | 0.42 | 0.42 | 95 | 1018.4 |
| 20260902190836 | 70 | 130 | 3.0 | 3.0 | 0.00 | 0.42 | 0.42 | 95 | 1018.5 |
| 20260902190335 | 70 | 130 | 4.0 | 5.0 | 0.00 | 0.42 | 0.42 | 95 | 1018.4 |
| 20260902185832 | 70 | 111 | 5.0 | 6.0 | 0.00 | 0.42 | 0.42 | 95 | 1018.5 |
| 20260902185327 | 70 | 151 | 2.0 | 2.0 | 0.00 | 0.42 | 0.42 | 95 | 1018.3 |
| 20260902184823 | 70 | 120 | 6.0 | 8.0 | 0.00 | 0.42 | 0.42 | 95 | 1018.4 |
| 20260902184318 | 70 | 167 | 3.0 | 5.0 | 0.00 | 0.42 | 0.42 | 95 | 1018.6 |
| 20260902183813 | 70 | 92 | 6.0 | 8.0 | 0.00 | 0.42 | 0.42 | 95 | 1018.4 |
| 20260902183309 | 70 | 123 | 6.0 | 7.0 | 0.00 | 0.42 | 0.42 | 95 | 1018.4 |
| 20260902182805 | 70 | 152 | 5.0 | 8.0 | 0.00 | 0.42 | 0.42 | 95 | 1018.3 |
| 20260902182305 | 71 | 103 | 5.0 | 8.0 | 0.00 | 0.42 | 0.42 | 95 | 1018.7 |
| 20260902181757 | 71 | 186 | 4.0 | 5.0 | 0.00 | 0.42 | 0.42 | 95 | 1018.4 |
| 20260902181252 | 71 | 114 | 3.0 | 6.0 | 0.00 | 0.42 | 0.42 | 95 | 1018.4 |
| 20260902180747 | 71 | 109 | 8.0 | 9.0 | 0.00 | 0.42 | 0.42 | 95 | 1018.7 |
| 20260902180242 | 71 | 165 | 4.0 | 5.0 | 0.00 | 0.42 | 0.42 | 95 | 1018.9 |
| 20260902175737 | 71 | 109 | 2.0 | 3.0 | 0.00 | 0.42 | 0.42 | 95 | 1018.9 |
| 20260902175233 | 71 | 114 | 5.0 | 7.0 | 0.00 | 0.42 | 0.42 | 95 | 1018.9 |
| 20260902174729 | 70 | 101 | 4.0 | 6.0 | 0.00 | 0.42 | 0.42 | 95 | 1019.0 |
| 20260902174224 | 70 | 137 | 7.0 | 10.0 | 0.00 | 0.42 | 0.42 | 95 | 1019.1 |
| 20260902173719 | 69 | 116 | 2.0 | 3.0 | 0.00 | 0.42 | 0.42 | 95 | 1019.1 |
| 20260902173214 | 69 | 91 | 3.0 | 5.0 | 0.00 | 0.42 | 0.42 | 95 | 1019.2 |
| 20260902172709 | 69 | 119 | 5.0 | 5.0 | 0.00 | 0.42 | 0.42 | 95 | 1019.3 |
| 20260902172208 | 69 | 125 | 7.0 | 10.0 | 0.00 | 0.42 | 0.42 | 95 | 1019.4 |
| 20260902171703 | 69 | 165 | 9.0 | 13.0 | 0.00 | 0.42 | 0.42 | 95 | 1019.4 |
| 20260902171159 | 69 | 73 | 4.0 | 6.0 | 0.00 | 0.42 | 0.42 | 95 | 1019.7 |
| 20260902170655 | 69 | 125 | 5.0 | 9.0 | 0.00 | 0.42 | 0.42 | 95 | 1019.4 |
| 20260902170149 | 69 | 97 | 5.0 | 8.0 | 0.00 | 0.42 | 0.42 | 95 | 1019.6 |
| 20260902165644 | 68 | 135 | 5.0 | 7.0 | 0.00 | 0.42 | 0.42 | 95 | 1019.4 |
| 20260902165138 | 69 | 139 | 3.0 | 3.0 | 0.00 | 0.42 | 0.42 | 95 | 1019.5 |
| 20260902164634 | 68 | 125 | 6.0 | 8.0 | 0.00 | 0.42 | 0.42 | 95 | 1019.3 |
| 20260902164133 | 69 | 166 | 4.0 | 5.0 | 0.00 | 0.42 | 0.42 | 95 | 1019.5 |